This demonstration page uses our WeatherBlox Daily Observations layout. Learn more.

Hourly Observations for December 31, 2015

Temp ( °F °C ) Dew Point ( °F °C ) Humidity (%) Winds ( mph kmh ) Pressure ( in mb ) Visibility ( mi km ) Precip ( " mm )
12:15 am 00:15 Clear 12 -11.3 9 -12.7 90 90 Calm 30.45 1031 7 11.26538 0 0
12:35 am 00:35 Clear 12 -11 10 -12.3 90 90 Calm 30.48 1032 7 11.26538 0 0
12:55 am 00:55 Clear 12 -11.1 9 -12.6 89 89 Calm 30.45 1031 10 16.0934 0 0
1:15 am 01:15 Clear 13 -10.4 11 -11.6 91 91 Calm 30.42 1030 7 11.26538 0 0
1:35 am 01:35 Clear with Mist and Fog 17 -8.6 15 -9.6 93 93 Calm 30.42 1030 5 8.0467 0 0
1:55 am 01:55 Clear with Mist and Fog 15 -9.5 13 -10.7 91 91 Calm 30.42 1030 4 6.43736 0 0
2:15 am 02:15 Clear with Mist and Fog 13 -10.6 11 -11.9 90 90 Calm 30.45 1031 5 8.0467 0 0
2:35 am 02:35 Clear with Mist and Fog 14 -10.2 11 -11.4 91 91 Calm 30.45 1031 5 8.0467 0 0
2:55 am 02:55 Clear 13 -10.5 11 -11.8 90 90 W 5 7 30.45 1031 7 11.26538 0 0
3:15 am 03:15 Partly Cloudy 15 -9.3 13 -10.5 91 91 WNW 3 6 30.45 1031 7 11.26538 0 0
3:35 am 03:35 Mostly Cloudy 15 -9.6 13 -10.8 91 91 W 5 7 30.45 1031 10 16.0934 0 0
3:55 am 03:55 Partly Cloudy 14 -10 12 -11.3 90 90 W 3 6 30.45 1031 10 16.0934 0 0
4:15 am 04:15 Clear 14 -10.2 11 -11.5 90 90 W 5 7 30.45 1031 10 16.0934 0 0
4:35 am 04:35 Partly Cloudy 14 -9.8 12 -11.1 90 90 WNW 3 6 30.45 1031 10 16.0934 0 0
4:55 am 04:55 Partly Cloudy 13 -10.5 11 -11.9 90 90 W 3 6 30.45 1031 10 16.0934 0 0
5:15 am 05:15 Partly Cloudy 14 -10.1 11 -11.5 90 90 WNW 3 6 30.45 1031 10 16.0934 0 0
5:35 am 05:35 Clear 13 -10.6 10 -12.1 89 89 WNW 3 6 30.48 1032 10 16.0934 0 0
5:55 am 05:55 Clear 14 -9.9 11 -11.4 89 89 W 6 9 30.45 1031 10 16.0934 0 0
6:15 am 06:15 Clear 15 -9.5 11 -11.4 86 86 W 6 9 30.45 1031 10 16.0934 0 0
6:35 am 06:35 Clear 13 -10.4 10 -12.4 85 85 W 6 9 30.45 1031 10 16.0934 0 0
6:55 am 06:55 Clear 14 -10.2 10 -12.3 85 85 W 6 9 30.5 1033 10 16.0934 0 0
7:15 am 07:15 Clear 13 -10.6 9 -12.8 84 84 W 6 9 30.5 1033 10 16.0934 0 0
7:35 am 07:35 Clear 13 -10.7 9 -13 83 83 W 7 11 30.5 1033 10 16.0934 0 0
7:55 am 07:55 Clear 12 -10.9 9 -13 85 85 W 6 9 30.5 1033 10 16.0934 0 0
8:15 am 08:15 Sunny 13 -10.8 9 -12.9 85 85 W 7 11 30.5 1033 10 16.0934 0 0
8:35 am 08:35 Sunny 13 -10.5 9 -12.7 84 84 WNW 6 9 30.5 1033 10 16.0934 0 0
8:55 am 08:55 Sunny 14 -9.8 10 -12 84 84 WNW 6 9 30.5 1033 10 16.0934 0 0
9:15 am 09:15 Sunny 15 -9.2 11 -11.4 84 84 WNW 8 13 30.5 1033 10 16.0934 0 0
9:35 am 09:35 Sunny 18 -7.6 14 -9.9 84 84 NW 8 13 30.5 1033 10 16.0934 0 0
9:55 am 09:55 Sunny 21 -6.1 16 -9.1 80 80 NW 15 24 30.48 1032 10 16.0934 0 0
10:15 am 10:15 Sunny 22 -5.5 15 -9.3 75 75 NW 15 24 30.5 1033 10 16.0934 0 0
10:35 am 10:35 Sunny 23 -5.1 16 -9.1 74 74 NW 13 20 30.5 1033 10 16.0934 0 0
10:55 am 10:55 Sunny 24 -4.5 16 -8.8 72 72 NW 15 24 30.5 1033 10 16.0934 0 0
11:15 am 11:15 Sunny 24 -4.7 15 -9.2 71 71 NNW 13 20 30.5 1033 10 16.0934 0 0
11:35 am 11:35 Sunny 24 -4.2 16 -9.1 69 69 NNW 14 22 30.5 1033 10 16.0934 0 0
11:55 am 11:55 Sunny 25 -3.8 16 -8.8 69 69 NNW 9 15 30.5 1033 10 16.0934 0 0
12:15 pm 12:15 Sunny 26 -3.1 16 -8.7 66 66 NNW 9 15 30.48 1032 10 16.0934 0 0
12:35 pm 12:35 Sunny 27 -2.6 17 -8.3 65 65 NW 10 17 30.48 1032 10 16.0934 0 0
12:55 pm 12:55 Sunny 27 -2.6 17 -8.4 65 65 NW 9 15 30.48 1032 10 16.0934 0 0
1:15 pm 13:15 Sunny 28 -2.5 17 -8.3 65 65 WNW 8 13 30.48 1032 10 16.0934 0 0
1:35 pm 13:35 Sunny 28 -2 18 -8 64 64 NW 9 15 30.48 1032 10 16.0934 0 0
1:55 pm 13:55 Sunny 29 -1.6 17 -8.1 62 62 W 9 15 30.48 1032 10 16.0934 0 0
2:15 pm 14:15 Sunny 29 -1.4 17 -8.4 59 59 W 8 13 30.48 1032 10 16.0934 0 0
2:35 pm 14:35 Sunny 31 -0.7 17 -8.6 56 56 W 7 11 30.48 1032 10 16.0934 0 0
2:55 pm 14:55 Sunny 31 -0.5 16 -8.7 54 54 WNW 12 19 30.45 1031 10 16.0934 0 0
3:15 pm 15:15 Sunny 31 -0.5 16 -8.7 54 54 WNW 12 19 30.45 1031 10 16.0934 0 0
3:35 pm 15:35 Sunny 31 -0.5 17 -8.6 55 55 WNW 9 15 30.45 1031 10 16.0934 0 0
3:55 pm 15:55 Sunny 31 -0.4 17 -8.6 54 54 WNW 10 17 30.45 1031 10 16.0934 0 0
4:15 pm 16:15 Sunny 31 -0.5 17 -8.2 56 56 WNW 8 13 30.45 1031 10 16.0934 0 0
4:35 pm 16:35 Sunny 31 -0.5 18 -7.6 59 59 W 7 11 30.45 1031 10 16.0934 0 0
4:55 pm 16:55 Sunny 30 -1.1 18 -7.7 61 61 W 6 9 30.48 1032 10 16.0934 0 0
5:15 pm 17:15 Sunny 28 -2 18 -8 64 64 W 6 9 30.48 1032 10 16.0934 0 0
5:35 pm 17:35 Clear 28 -2.4 18 -8 66 66 WNW 5 7 30.48 1032 10 16.0934 0 0
6:15 pm 18:15 Clear 24 -4.2 17 -8.6 72 72 WNW 3 6 30.53 1034 10 16.0934 0 0
6:35 pm 18:35 Clear 23 -5.2 15 -9.2 74 74 WNW 3 6 30.53 1034 10 16.0934 0 0
6:55 pm 18:55 Clear 21 -6.2 15 -9.5 78 78 WNW 3 6 30.53 1034 10 16.0934 0 0
7:15 pm 19:15 Clear 22 -5.5 15 -9.3 75 75 WNW 3 6 30.53 1034 10 16.0934 0 0
7:35 pm 19:35 Clear 22 -5.5 16 -9.1 76 76 W 7 11 30.53 1034 10 16.0934 0 0
7:55 pm 19:55 Clear 23 -5.1 15 -9.2 73 73 WNW 6 9 30.56 1035 10 16.0934 0 0
8:15 pm 20:15 Clear 23 -5.1 15 -9.4 72 72 WNW 8 13 30.56 1035 10 16.0934 0 0
8:35 pm 20:35 Clear 23 -4.8 15 -9.4 71 71 WNW 9 15 30.56 1035 10 16.0934 0 0
8:55 pm 20:55 Clear 24 -4.7 15 -9.2 71 71 WNW 9 15 30.56 1035 10 16.0934 0 0
9:15 pm 21:15 Clear 24 -4.4 16 -9.1 70 70 WNW 12 19 30.56 1035 10 16.0934 0 0
9:35 pm 21:35 Clear 23 -4.8 15 -9.3 71 71 WNW 10 17 30.56 1035 10 16.0934 0 0
9:55 pm 21:55 Clear 22 -5.3 15 -9.6 72 72 WNW 9 15 30.59 1036 10 16.0934 0 0
10:15 pm 22:15 Clear 21 -6.2 14 -10 75 75 W 8 13 30.62 1037 10 16.0934 0 0
10:35 pm 22:35 Clear 20 -6.5 14 -10 76 76 WNW 8 13 30.62 1037 10 16.0934 0 0
10:55 pm 22:55 Clear 21 -6.2 14 -9.8 76 76 WNW 9 15 30.62 1037 10 16.0934 0 0
11:15 pm 23:15 Clear 21 -6.2 14 -9.8 76 76 WNW 10 17 30.62 1037 10 16.0934 0 0
11:35 pm 23:35 Clear 21 -6 14 -9.8 75 75 WNW 9 15 30.62 1037 10 16.0934 0 0
11:55 pm 23:55 Clear 20 -6.5 14 -10.1 76 76 W 9 15 30.62 1037 10 16.0934 0 0

Powered by AerisWeather